When you browse on this site, cookies collect data to enhance your experience and personalize the content and advertising you see.
Visit our Privacy Policy to learn more. By continuing to use the site, you agree to this use of cookies and data.
  • In Portugal
  • List of Countries
  • For 7 days
  • Water Temperature
  • Satellite Maps
  • Weather Map
  • Weather Widgets
  • user-avatar
    Login

    Hourly Weather Chaldanka

    Today, 16 February, Saturday

    Time Temperature Precipitation Wind Pressure Humidity
    00:00 -12°C° 0 mm 2 mps 755 mmHg 56%
    01:00 -12°C° 0 mm 2 mps 755 mmHg 59%
    02:00 -13°C° 0 mm 2 mps 755 mmHg 62%
    03:00 -14°C° 0 mm 3 mps 755 mmHg 66%
    04:00 -14°C° 0 mm 3 mps 755 mmHg 69%
    05:00 -15°C° 0 mm 3 mps 755 mmHg 72%
    06:00 -15°C° 0 mm 3 mps 755 mmHg 75%
    07:00 -14°C° 0 mm 3 mps 755 mmHg 71%
    08:00 -14°C° 0 mm 3 mps 755 mmHg 68%
    09:00 -14°C° 0 mm 4 mps 755 mmHg 65%
    10:00 -12°C° 0 mm 4 mps 755 mmHg 59%
    11:00 -11°C° 0 mm 4 mps 755 mmHg 54%
    12:00 -11°C° 0 mm 5 mps 754 mmHg 48%
    13:00 -10°C° 0 mm 5 mps 754 mmHg 47%
    14:00 -8°C° 0 mm 5 mps 753 mmHg 45%
    15:00 -8°C° 0 mm 5 mps 753 mmHg 43%
    16:00 -8°C° 0 mm 5 mps 753 mmHg 47%
    17:00 -9°C° 0 mm 4 mps 753 mmHg 51%
    18:00 -8°C° 0 mm 3 mps 753 mmHg 55%
    19:00 -9°C° 0 mm 4 mps 753 mmHg 54%
    20:00 -9°C° 0 mm 4 mps 753 mmHg 52%
    21:00 -11°C° 0 mm 5 mps 752 mmHg 51%
    22:00 -11°C° 0 mm 5 mps 752 mmHg 53%
    23:00 -11°C° 0 mm 5 mps 752 mmHg 56%

    Tomorrow, 17 February, Sunday

    Time Temperature Precipitation Wind Pressure Humidity
    00:00 -12°C° 0 mm 5 mps 752 mmHg 58%
    01:00 -12°C° 0 mm 5 mps 752 mmHg 58%
    02:00 -12°C° 0 mm 5 mps 752 mmHg 57%
    03:00 -11°C° 0 mm 4 mps 752 mmHg 57%
    04:00 -11°C° 0 mm 4 mps 752 mmHg 56%
    05:00 -12°C° 0 mm 4 mps 752 mmHg 56%
    06:00 -12°C° 0 mm 4 mps 752 mmHg 55%
    07:00 -11°C° 0 mm 4 mps 752 mmHg 52%
    08:00 -11°C° 0 mm 5 mps 752 mmHg 50%
    09:00 -11°C° 0 mm 5 mps 753 mmHg 47%
    10:00 -10°C° 0 mm 5 mps 752 mmHg 43%
    11:00 -7°C° 0 mm 5 mps 752 mmHg 40%
    12:00 -6°C° 0 mm 6 mps 752 mmHg 37%
    13:00 -5°C° 0 mm 6 mps 752 mmHg 37%
    14:00 -5°C° 0 mm 6 mps 751 mmHg 37%
    15:00 -5°C° 0 mm 6 mps 751 mmHg 37%
    16:00 -5°C° 0 mm 6 mps 752 mmHg 41%
    17:00 -6°C° 0 mm 5 mps 752 mmHg 45%
    18:00 -7°C° 0 mm 4 mps 753 mmHg 49%
    19:00 -7°C° 0 mm 4 mps 753 mmHg 50%
    20:00 -7°C° 0 mm 4 mps 754 mmHg 52%
    21:00 -7°C° 0 mm 4 mps 754 mmHg 53%
    22:00 -8°C° 0 mm 4 mps 755 mmHg 55%
    23:00 -8°C° 0 mm 4 mps 755 mmHg 58%

    Day after tomorrow, 18 February, Monday

    Time Temperature Precipitation Wind Pressure Humidity
    00:00 -8°C° 0 mm 3 mps 755 mmHg 60%
    01:00 -8°C° 0 mm 3 mps 756 mmHg 62%
    02:00 -9°C° 0 mm 3 mps 756 mmHg 64%
    03:00 -8°C° 0 mm 2 mps 756 mmHg 66%
    04:00 -9°C° 0 mm 2 mps 757 mmHg 66%
    05:00 -9°C° 0 mm 2 mps 757 mmHg 67%
    06:00 -9°C° 0 mm 2 mps 757 mmHg 67%
    07:00 -9°C° 0 mm 2 mps 758 mmHg 62%
    08:00 -9°C° 0 mm 3 mps 758 mmHg 57%
    09:00 -8°C° 0 mm 3 mps 758 mmHg 52%
    10:00 -7°C° 0 mm 3 mps 758 mmHg 47%
    11:00 -7°C° 0 mm 4 mps 758 mmHg 42%
    12:00 -4°C° 0 mm 4 mps 758 mmHg 37%
    13:00 -4°C° 0 mm 4 mps 757 mmHg 35%
    14:00 -4°C° 0 mm 5 mps 757 mmHg 33%
    15:00 -2°C° 0 mm 5 mps 757 mmHg 31%
    16:00 -2°C° 0 mm 5 mps 757 mmHg 33%
    17:00 -3°C° 0 mm 4 mps 757 mmHg 36%
    18:00 -4°C° 0 mm 3 mps 757 mmHg 38%
    19:00 -4°C° 0 mm 3 mps 757 mmHg 40%
    20:00 -5°C° 0 mm 3 mps 757 mmHg 42%
    21:00 -5°C° 0 mm 3 mps 758 mmHg 44%
    22:00 -5°C° 0 mm 3 mps 758 mmHg 46%
    23:00 -6°C° 0 mm 3 mps 758 mmHg 48%

    19 February, Tuesday

    Time Temperature Precipitation Wind Pressure Humidity
    00:00 -6°C° 0 mm 3 mps 758 mmHg 50%
    01:00 -6°C° 0 mm 3 mps 758 mmHg 50%
    02:00 -7°C° 0 mm 3 mps 758 mmHg 51%
    03:00 -7°C° 0 mm 3 mps 758 mmHg 51%
    04:00 -8°C° 0 mm 3 mps 758 mmHg 51%
    05:00 -8°C° 0 mm 3 mps 758 mmHg 51%
    06:00 -8°C° 0 mm 3 mps 758 mmHg 51%
    07:00 -8°C° 0 mm 3 mps 758 mmHg 49%
    08:00 -7°C° 0 mm 3 mps 759 mmHg 47%
    09:00 -7°C° 0 mm 3 mps 759 mmHg 44%
    10:00 -5°C° 0 mm 3 mps 759 mmHg 40%
    11:00 -4°C° 0 mm 3 mps 759 mmHg 36%
    12:00 -2°C° 0 mm 3 mps 758 mmHg 31%
    13:00 -1°C° 0 mm 3 mps 758 mmHg 30%
    14:00 -1°C° 0 mm 3 mps 758 mmHg 29%
    15:00 0°C° 0 mm 3 mps 758 mmHg 28%
    16:00 -1°C° 0 mm 2 mps 758 mmHg 31%
    17:00 -2°C° 0 mm 2 mps 758 mmHg 33%
    18:00 -1°C° 0 mm 1 mps 758 mmHg 36%
    19:00 -1°C° 0 mm 1 mps 759 mmHg 38%
    20:00 -1°C° 0 mm 1 mps 759 mmHg 39%
    21:00 -2°C° 0 mm 1 mps 759 mmHg 40%
    22:00 -2°C° 0 mm 1 mps 760 mmHg 44%
    23:00 -3°C° 0 mm 1 mps 760 mmHg 47%

    20 February, Wednesday

    Time Temperature Precipitation Wind Pressure Humidity
    00:00 -3°C° 0 mm 1 mps 760 mmHg 50%
    01:00 -4°C° 0 mm 1 mps 760 mmHg 57%
    02:00 -4°C° 0 mm 1 mps 760 mmHg 63%
    03:00 -6°C° 0 mm 1 mps 760 mmHg 70%
    04:00 -6°C° 0 mm 1 mps 760 mmHg 74%
    05:00 -7°C° 0 mm 1 mps 760 mmHg 78%
    06:00 -7°C° 0 mm 1 mps 761 mmHg 83%
    07:00 -7°C° 0 mm 1 mps 761 mmHg 77%
    08:00 -7°C° 0 mm 1 mps 761 mmHg 71%
    09:00 -8°C° 0 mm 2 mps 762 mmHg 65%
    10:00 -6°C° 0 mm 2 mps 762 mmHg 56%
    11:00 -5°C° 0 mm 2 mps 762 mmHg 46%
    12:00 -4°C° 0 mm 2 mps 762 mmHg 36%
    13:00 -3°C° 0 mm 2 mps 761 mmHg 33%
    14:00 -3°C° 0 mm 2 mps 761 mmHg 30%
    15:00 -2°C° 0 mm 2 mps 761 mmHg 27%
    16:00 -3°C° 0 mm 2 mps 761 mmHg 29%
    17:00 -3°C° 0 mm 2 mps 761 mmHg 31%
    18:00 -4°C° 0 mm 2 mps 762 mmHg 33%
    19:00 -5°C° 0 mm 2 mps 762 mmHg 35%
    20:00 -3°C° 0 mm 1 mps 762 mmHg 37%
    21:00 -4°C° 0 mm 1 mps 762 mmHg 39%
    22:00 -4°C° 0 mm 1 mps 763 mmHg 41%
    23:00 -4°C° 0 mm 1 mps 763 mmHg 43%

    21 February, Thursday

    Time Temperature Precipitation Wind Pressure Humidity
    00:00 -6°C° 0 mm 1 mps 763 mmHg 45%
    01:00 -6°C° 0 mm 1 mps 763 mmHg 45%
    02:00 -6°C° 0 mm 1 mps 763 mmHg 46%
    03:00 -7°C° 0 mm 2 mps 763 mmHg 47%
    04:00 -8°C° 0 mm 2 mps 763 mmHg 46%
    05:00 -8°C° 0 mm 2 mps 763 mmHg 45%
    06:00 -8°C° 0 mm 2 mps 762 mmHg 45%
    07:00 -7°C° 0 mm 2 mps 762 mmHg 45%
    08:00 -6°C° 0 mm 2 mps 762 mmHg 46%
    09:00 -7°C° 0 mm 3 mps 762 mmHg 46%
    10:00 -5°C° 0 mm 3 mps 762 mmHg 42%
    11:00 -4°C° 0 mm 3 mps 761 mmHg 39%
    12:00 -1°C° 0 mm 3 mps 761 mmHg 35%
    13:00 -1°C° 0 mm 4 mps 760 mmHg 34%
    14:00 0°C° 0 mm 4 mps 760 mmHg 33%
    15:00 0°C° 0 mm 4 mps 760 mmHg 32%
    16:00 +1°C° 0 mm 3 mps 760 mmHg 35%
    17:00 0°C° 0 mm 3 mps 760 mmHg 38%
    18:00 -1°C° 0 mm 2 mps 760 mmHg 41%
    19:00 -2°C° 0 mm 2 mps 761 mmHg 44%
    20:00 -2°C° 0 mm 2 mps 761 mmHg 46%
    21:00 -1°C° 0 mm 1 mps 761 mmHg 49%
    22:00 -1°C° 0 mm 1 mps 762 mmHg 53%
    23:00 -2°C° 0 mm 1 mps 762 mmHg 57%
    Show more